Temp
59 59 59 58 58 57 57 57 57 57 57 58 58 58 58 58 56 56 57 66 62 65 65 65 66 66 67 65 65 62 57 52 57 55 63 68 67 71 74 72 73 77 76 78 76
58 58 58 58 57 57 57 57 56 57 57 57 57 57 57 57 52 52 63 64 64 66 66 65 62 64 63 62 63 62 55 55 61 63 64 66 66 68 70 69 70 72 76 77 72
57 57 57 58 57 57 57 56 56 57 57 57 57 57 57 56 52 63 67 66 65 66 67 69 66 65 60 60 60 60 56 59 62 64 66 66 66 69 68 67 70 71 75 77 73
57 57 57 57 57 57 56 55 56 56 56 57 57 57 57 53 52 65 65 65 66 66 66 66 63 59 57 56 60 55 57 63 66 65 65 64 66 66 67 71 76 75 75 74 75
56 56 56 56 56 56 56 55 55 56 56 56 57 57 52 50 53 64 64 64 67 65 64 63 61 60 55 57 58 55 58 61 64 64 64 66 64 64 65 73 74 73 73 73 74
56 55 55 55 55 55 55 55 55 55 55 56 57 56 48 46 65 61 60 62 65 64 64 64 63 64 59 58 58 61 60 62 64 64 63 62 64 65 68 71 71 70 73 76 73
55 55 55 55 55 54 54 54 54 55 55 57 57 54 45 52 61 61 59 61 63 65 61 64 65 61 61 57 62 60 55 59 60 62 62 63 59 59 70 71 69 71 73 74 74
55 55 54 54 54 54 54 54 54 55 56 56 56 50 45 59 61 59 61 61 63 61 61 65 65 62 59 62 59 55 55 49 58 60 62 64 55 65 71 67 69 68 70 72 74
55 54 54 53 53 53 53 53 54 56 56 55 50 48 45 62 58 63 63 59 63 61 60 67 63 58 58 52 49 51 46 47 52 60 61 60 58 65 68 66 67 69 70 71 72
54 54 53 53 53 53 53 53 55 55 56 55 54 45 53 52 58 61 65 63 59 59 57 57 56 52 51 50 40 44 45 47 49 58 58 58 57 62 66 65 66 67 68 70 71
53 53 53 53 53 53 50 47 43 43 45 39 43 41 46 54 59 56 61 58 59 56 50 53 47 44 50 52 53 51 48 47 52 58 56 56 57 61 64 64 63 67 68 70 71
53 53 52 52 52 52 48 41 41 42 34 45 45 45 50 52 42 50 58 48 50 46 51 47 43 52 53 51 50 49 47 47 52 56 55 55 55 61 63 63 66 66 68 69 71
52 52 52 52 51 45 42 42 48 46 33 39 47 46 50 52 44 47 54 50 45 44 47 45 50 54 50 47 46 47 45 46 46 53 55 52 51 56 63 64 65 66 67 70 68
52 52 51 51 45 41 42 46 46 46 31 37 44 49 52 53 43 56 56 52 47 42 46 46 54 51 47 46 49 43 50 49 48 46 41 52 42 53 59 61 61 65 64 64 65
52 52 51 49 41 39 45 45 47 44 22 40 45 57 52 45 45 50 59 52 43 43 45 43 46 46 46 47 50 46 52 49 48 45 45 47 42 49 54 56 59 61 61 62 64
51 51 51 45 42 43 44 44 44 30 19 34 43 41 40 43 45 50 49 53 53 44 45 44 51 51 51 53 53 53 50 48 46 45 35 43 43 45 53 57 57 58 60 61 63
51 50 47 46 39 43 43 39 29 21 37 33 34 38 37 37 39 39 37 39 37 34 36 42 43 50 53 48 51 50 46 36 33 32 34 45 41 48 55 58 59 57 58 60 62
50 48 44 44 43 43 39 28 17 29 30 39 36 36 33 38 38 38 35 33 42 40 37 33 33 44 51 50 46 45 45 36 28 30 37 44 38 47 59 63 60 58 60 61 61
48 39 39 41 42 41 33 19 25 28 34 32 34 30 31 37 35 35 33 31 33 33 32 34 35 47 49 52 52 44 40 51 40 40 37 42 47 54 56 56 57 56 58 58 59
38 36 37 42 43 38 28 28 29 36 37 36 26 31 27 31 30 31 30 34 33 37 35 35 31 46 49 52 53 49 53 38 41 31 30 38 41 46 49 51 54 54 55 57 59
35 32 41 42 42 32 23 28 32 39 39 33 30 29 31 29 32 30 30 35 41 40 39 34 34 41 46 44 43 45 43 46 46 41 35 34 40 51 51 54 54 54 55 56 57
33 24 42 43 28 31 27 30 38 36 40 37 36 33 30 32 30 30 29 34 44 42 33 36 33 31 41 43 45 49 46 47 40 36 41 42 42 51 52 54 55 54 55 57 59
30 32 39 41 22 25 31 32 35 34 36 34 34 35 37 32 29 34 36 44 45 42 35 34 32 28 35 40 43 37 43 45 47 43 40 36 41 51 53 53 54 54 55 57 59
31 22 31 36 35 30 25 27 30 38 36 37 35 36 33 32 37 33 35 42 43 43 45 37 32 29 28 32 37 34 37 40 41 38 41 42 42 46 50 52 53 53 54 56 58
28 25 32 22 27 30 30 31 29 29 36 37 34 34 31 28 31 32 36 36 41 44 42 39 28 31 34 39 40 38 36 36 36 40 39 45 44 49 51 52 53 54 55 55 56
27 28 33 32 32 29 29 29 29 30 31 31 31 33 33 29 31 28 32 33 33 40 37 40 32 33 30 37 39 36 38 38 40 41 41 42 42 48 52 54 53 53 54 53 52
34 36 32 29 29 27 28 31 30 32 35 36 34 32 32 35 37 37 38 37 36 33 33 34 32 32 29 36 35 32 36 38 40 42 43 40 45 49 47 49 50 51 52 51 50
MSLP
1021.34 1021.07 1020.84 1020.66 1020.24 1020.06 1019.63 1019.31 1019.20 1018.88 1018.38 1017.86 1017.33 1016.86 1016.32 1015.42 1014.35 1013.54 1013.00 1011.18 1011.07 1010.66 1010.86 1011.28 1011.27 1011.27 1011.20 1011.20 1011.43 1011.58 1011.05 1010.09 1009.38 1008.94 1008.01 1007.81 1007.53 1007.27 1007.04 1006.83 1006.62 1006.38 1006.43 1006.66 1006.92
1021.38 1021.13 1020.85 1020.63 1020.28 1019.94 1019.64 1019.24 1019.03 1018.66 1018.29 1017.80 1017.25 1016.68 1016.05 1015.35 1014.35 1012.71 1011.32 1010.87 1010.81 1010.75 1010.79 1010.93 1010.98 1011.17 1011.14 1011.01 1011.23 1010.93 1010.18 1009.38 1008.73 1008.34 1007.91 1007.72 1007.55 1007.36 1007.02 1006.79 1006.60 1006.54 1006.57 1006.73 1007.09
1021.56 1021.25 1020.97 1020.48 1020.28 1019.93 1019.56 1019.08 1018.77 1018.44 1018.04 1017.63 1017.16 1016.44 1015.94 1015.33 1014.28 1011.31 1010.66 1010.57 1010.61 1010.82 1010.51 1010.65 1010.67 1010.88 1010.97 1010.95 1010.76 1010.25 1008.92 1009.07 1008.42 1008.30 1008.10 1007.75 1007.38 1007.13 1006.90 1006.27 1005.96 1006.07 1005.94 1006.34 1006.77
1021.72 1021.36 1021.01 1020.53 1020.26 1019.78 1019.22 1018.85 1018.42 1018.00 1017.66 1017.41 1017.01 1016.45 1015.66 1015.53 1013.75 1011.09 1010.85 1010.67 1010.52 1010.75 1010.72 1010.62 1010.74 1010.81 1010.64 1010.35 1010.10 1009.94 1009.11 1008.68 1008.05 1008.12 1007.97 1007.53 1007.39 1006.80 1006.58 1006.16 1005.42 1005.87 1005.96 1006.05 1006.07
1021.63 1021.43 1021.09 1020.62 1020.15 1019.68 1019.06 1018.38 1017.84 1017.46 1017.18 1016.99 1016.69 1016.37 1016.05 1015.05 1012.56 1011.21 1011.06 1010.83 1010.62 1010.65 1010.57 1010.27 1010.35 1010.40 1010.10 1009.90 1009.79 1009.38 1008.84 1008.43 1007.99 1007.82 1007.69 1007.49 1006.77 1006.43 1006.13 1005.85 1005.61 1005.53 1005.59 1005.53 1005.53
1021.48 1021.27 1020.94 1020.57 1020.09 1019.49 1018.72 1017.96 1017.50 1016.78 1016.49 1016.23 1016.05 1016.29 1016.24 1014.38 1011.13 1011.31 1011.28 1010.98 1010.95 1010.70 1010.39 1010.46 1009.90 1009.82 1009.86 1009.50 1009.16 1008.61 1008.46 1008.01 1007.87 1007.65 1007.46 1007.15 1005.84 1006.09 1005.56 1005.60 1005.51 1005.15 1004.86 1004.86 1005.01
1021.44 1021.16 1020.85 1020.43 1019.96 1019.34 1018.16 1017.34 1016.87 1016.16 1015.87 1015.32 1015.36 1015.89 1015.89 1012.73 1011.38 1011.45 1011.19 1010.97 1010.69 1010.48 1010.54 1010.19 1010.03 1010.04 1009.81 1009.22 1008.71 1008.48 1008.12 1007.81 1007.53 1007.33 1006.94 1006.73 1004.74 1004.50 1004.63 1004.56 1004.60 1004.53 1004.37 1004.39 1004.29
1021.34 1021.05 1020.67 1020.36 1019.76 1018.93 1017.54 1016.50 1015.89 1015.54 1015.39 1015.03 1015.30 1015.65 1014.18 1011.99 1011.65 1011.38 1011.19 1010.71 1010.49 1010.35 1010.40 1009.87 1010.06 1009.98 1009.73 1009.46 1008.88 1008.50 1008.03 1007.38 1006.80 1006.53 1006.37 1006.42 1002.25 1003.90 1003.87 1004.18 1004.02 1003.93 1003.94 1004.05 1003.92
1021.21 1020.92 1020.56 1020.26 1019.51 1018.62 1017.16 1016.19 1015.45 1015.39 1015.45 1015.45 1015.72 1015.47 1013.23 1011.59 1011.40 1011.11 1011.25 1011.04 1010.34 1010.06 1010.03 1009.69 1009.67 1009.44 1009.29 1009.43 1009.22 1008.38 1007.28 1007.21 1006.80 1006.20 1006.04 1005.75 1003.10 1003.56 1003.65 1003.78 1003.74 1003.59 1003.62 1003.47 1003.37
1021.07 1020.96 1020.42 1020.26 1019.46 1018.31 1016.71 1015.86 1015.65 1015.47 1015.59 1015.48 1015.44 1015.64 1013.04 1012.50 1012.17 1011.72 1011.13 1010.92 1010.63 1010.08 1009.86 1009.92 1009.62 1009.02 1008.57 1008.66 1007.50 1007.91 1007.61 1006.98 1006.22 1005.98 1005.75 1005.13 1003.77 1003.85 1003.50 1003.49 1003.45 1003.23 1003.11 1003.01 1002.64
1021.28 1020.98 1020.58 1020.10 1019.62 1018.43 1016.81 1016.27 1017.13 1016.76 1017.08 1017.56 1016.56 1016.36 1014.70 1013.25 1013.08 1011.75 1010.90 1010.61 1010.23 1009.96 1009.57 1009.44 1009.38 1006.86 1007.48 1007.56 1007.67 1007.61 1007.35 1006.58 1006.39 1006.05 1005.84 1004.86 1003.65 1003.39 1003.41 1003.24 1003.22 1002.78 1002.44 1002.15 1001.67
1021.26 1020.99 1020.49 1019.97 1019.55 1018.88 1018.33 1019.33 1020.99 1021.38 1018.79 1017.22 1015.87 1015.90 1014.47 1014.04 1013.63 1011.92 1011.60 1011.44 1010.21 1009.05 1008.94 1009.24 1007.47 1006.91 1007.36 1007.48 1007.55 1007.45 1007.15 1005.72 1006.49 1006.58 1006.19 1004.97 1002.62 1003.06 1002.90 1002.45 1002.16 1001.97 1001.61 1001.30 1000.88
1021.28 1020.91 1020.38 1020.07 1019.58 1019.58 1020.25 1020.77 1021.03 1020.98 1020.04 1016.97 1015.50 1014.87 1014.01 1013.73 1013.30 1012.33 1011.76 1011.16 1010.32 1008.91 1008.52 1007.97 1004.42 1006.20 1006.77 1006.92 1007.08 1006.78 1006.45 1006.50 1006.40 1006.50 1005.99 1005.21 1001.95 1002.29 1001.43 1001.48 1001.27 1001.24 1000.98 1000.80 1000.90
1021.25 1020.94 1020.40 1019.83 1020.15 1020.87 1020.68 1020.64 1020.62 1020.51 1019.57 1017.22 1015.07 1014.21 1013.82 1012.95 1012.49 1012.29 1011.24 1011.21 1010.19 1009.14 1008.57 1007.61 1004.73 1005.77 1006.04 1006.01 1006.57 1006.16 1006.37 1006.56 1006.35 1006.62 1005.77 1005.30 1001.92 1001.57 1001.26 1000.87 1000.75 1000.58 1001.11 1001.07 1000.85
1021.28 1021.05 1020.63 1020.61 1021.40 1021.36 1020.95 1020.66 1020.14 1020.26 1019.35 1016.97 1015.28 1014.33 1014.44 1014.67 1013.71 1011.74 1010.91 1010.43 1009.66 1009.15 1009.29 1005.96 1005.53 1005.23 1005.30 1004.29 1005.94 1005.43 1005.68 1005.74 1005.86 1006.02 1006.24 1005.05 1004.25 1001.56 1001.45 1000.66 1000.70 1001.05 1001.33 1001.26 1000.82
1021.33 1021.12 1020.98 1021.52 1021.52 1021.36 1021.04 1020.45 1020.20 1020.25 1018.44 1017.05 1016.06 1015.25 1014.84 1014.18 1013.20 1012.30 1011.55 1010.47 1009.22 1008.85 1008.25 1006.49 1006.42 1005.27 1003.59 1004.43 1004.71 1005.25 1005.58 1005.95 1006.24 1006.27 1005.52 1004.41 1004.23 1001.45 1001.01 1000.34 1000.95 1001.42 1001.52 1001.43 1000.71
1021.28 1021.12 1021.09 1021.54 1021.74 1021.36 1021.18 1021.09 1021.08 1020.25 1019.01 1017.86 1016.81 1016.44 1015.72 1014.50 1013.61 1013.31 1012.36 1011.04 1010.03 1008.94 1007.68 1006.30 1005.17 1004.65 1003.98 1003.78 1004.14 1004.59 1005.01 1005.49 1005.91 1005.48 1003.79 1003.56 1003.48 1001.15 1000.78 1000.81 1000.96 1001.42 1001.59 1001.38 1000.85
1021.12 1021.10 1021.51 1021.72 1021.59 1021.46 1021.71 1021.82 1021.32 1020.48 1019.52 1018.55 1017.79 1016.66 1016.02 1014.97 1014.03 1013.39 1012.78 1011.53 1009.76 1009.28 1007.87 1006.69 1004.81 1003.54 1003.16 1002.55 1002.69 1003.35 1003.74 1003.77 1003.55 1003.61 1003.06 1003.48 1002.18 1000.66 999.95 1000.69 1001.48 1001.89 1001.73 1001.35 1000.84
1021.05 1021.67 1021.99 1022.05 1021.65 1021.85 1022.17 1021.93 1021.44 1020.82 1019.95 1019.26 1018.05 1017.09 1016.17 1015.58 1015.61 1014.30 1013.24 1012.66 1012.24 1010.58 1009.15 1006.81 1004.65 1002.69 1002.03 1002.00 1001.92 1002.53 1002.95 1002.21 1002.79 1002.99 1002.68 1002.07 1001.41 1000.73 1000.46 1000.94 1001.66 1001.93 1001.53 1001.39 1001.25
1021.70 1022.20 1022.58 1022.26 1021.90 1022.07 1022.35 1021.97 1021.30 1020.61 1019.97 1019.63 1019.04 1018.06 1017.07 1016.04 1015.63 1014.73 1013.77 1013.33 1012.32 1011.16 1010.37 1007.76 1005.79 1002.64 1001.75 1002.11 1001.84 1001.57 1001.60 1002.62 1002.56 1002.21 1001.75 1001.40 1001.13 1000.30 1000.78 1001.30 1001.89 1002.04 1001.77 1001.90 1001.75
1021.97 1022.62 1022.71 1022.28 1022.04 1022.44 1022.61 1022.03 1021.18 1020.23 1020.02 1019.67 1019.11 1018.49 1017.67 1016.83 1016.02 1014.96 1013.90 1012.57 1011.46 1010.16 1009.69 1008.58 1006.85 1003.55 1002.41 1001.83 1001.26 1001.68 1001.63 1001.53 1001.54 1001.68 1001.02 1000.90 1000.72 1000.45 1000.54 1001.13 1001.50 1001.87 1002.14 1002.13 1001.93
1022.41 1023.24 1022.62 1022.35 1022.72 1022.77 1022.59 1021.91 1021.06 1020.11 1019.63 1019.38 1018.99 1018.62 1017.99 1017.10 1015.98 1015.05 1014.01 1012.83 1011.13 1010.66 1009.78 1008.67 1007.54 1004.99 1002.94 1002.77 1002.20 1001.55 1001.24 1001.33 1000.90 1001.02 1001.01 1000.71 1000.78 1000.84 1000.84 1001.22 1001.56 1002.02 1002.22 1002.19 1001.98
1022.78 1023.05 1022.85 1022.54 1022.85 1022.79 1022.38 1021.62 1020.96 1020.17 1019.61 1019.30 1018.83 1018.67 1017.97 1016.98 1015.90 1014.45 1013.24 1011.90 1011.29 1010.68 1010.37 1009.77 1008.02 1005.91 1003.61 1003.27 1002.97 1003.06 1002.70 1002.13 1001.44 1001.37 1000.92 1000.88 1000.70 1001.27 1001.35 1001.63 1002.03 1002.03 1002.47 1002.61 1002.21
1022.83 1023.30 1023.24 1022.72 1022.68 1022.63 1022.46 1021.71 1020.89 1019.95 1019.52 1019.35 1019.07 1018.70 1018.09 1016.81 1015.86 1014.57 1013.28 1011.97 1011.59 1010.73 1010.17 1010.11 1008.93 1007.11 1005.24 1004.44 1004.17 1003.84 1003.41 1002.93 1002.11 1001.59 1000.81 1000.81 1001.18 1001.50 1001.62 1001.53 1001.94 1002.30 1002.54 1002.79 1002.69
1022.77 1023.25 1022.95 1023.09 1022.79 1022.59 1022.33 1021.65 1020.97 1020.29 1019.68 1019.32 1018.90 1018.74 1018.43 1017.22 1015.91 1014.69 1013.68 1012.60 1011.28 1010.66 1010.23 1009.90 1009.09 1008.11 1006.48 1005.29 1004.55 1004.10 1003.70 1003.29 1002.60 1001.88 1001.31 1000.54 1001.10 1001.15 1001.43 1001.75 1002.14 1002.51 1002.64 1002.87 1003.31
1022.75 1023.01 1023.00 1022.90 1022.72 1022.43 1022.04 1021.43 1020.92 1020.60 1020.23 1019.32 1019.00 1018.66 1018.22 1017.59 1016.78 1015.46 1015.08 1013.73 1012.46 1010.87 1010.92 1010.28 1009.30 1008.49 1007.37 1005.70 1004.95 1004.18 1003.91 1003.34 1002.85 1002.46 1001.95 1001.61 1001.57 1001.73 1001.75 1002.24 1002.86 1003.02 1003.30 1003.57 1004.45
1022.50 1022.54 1022.54 1022.79 1022.48 1022.32 1021.66 1021.13 1020.93 1020.80 1019.80 1019.47 1019.20 1018.68 1017.67 1016.86 1016.46 1015.36 1014.85 1013.68 1013.10 1012.40 1011.36 1010.66 1009.85 1008.55 1006.81 1005.72 1004.88 1004.32 1004.07 1003.60 1003.07 1002.84 1002.63 1002.14 1001.99 1002.29 1002.53 1002.86 1003.30 1003.66 1004.14 1004.66 1005.49
Wind_Speed
14 15 16 17 17 19 19 19 20 21 21 21 21 22 25 25 26 3 7 7 5 5 5 7 3 2 3 4 3 2 4 8 10 10 6 3 4 2 0 2 4 3 1 2 4
14 15 16 17 17 18 19 20 21 21 21 21 21 22 23 24 10 7 10 12 10 3 7 7 6 8 4 5 4 6 7 12 6 8 6 3 3 1 3 4 4 5 4 3 1
14 14 14 16 18 19 20 20 21 22 22 21 21 20 21 18 7 3 6 8 7 7 1 3 4 5 5 3 6 6 13 6 5 9 6 6 8 5 5 8 8 8 14 8 5
15 15 15 16 18 20 20 19 22 22 21 20 19 18 19 4 6 2 10 11 0 2 3 3 5 4 5 8 6 7 7 12 8 6 5 6 3 9 10 14 15 11 11 10 12
14 15 16 18 19 21 21 21 23 23 22 20 17 14 6 3 11 4 13 13 2 4 4 7 6 6 6 5 6 8 5 7 11 12 10 9 18 18 9 15 13 13 12 14 12
13 14 16 19 20 22 24 24 24 24 23 21 13 2 1 4 1 7 10 8 4 2 1 4 5 4 5 6 10 2 6 13 10 13 7 14 21 11 11 14 13 10 14 13 11
13 15 17 19 21 22 24 25 23 22 21 14 3 6 4 16 6 12 9 4 4 8 6 4 3 2 1 4 3 5 12 11 10 7 9 5 20 16 19 17 17 15 14 13 12
13 14 16 19 21 24 26 26 24 15 7 6 9 4 9 4 7 8 4 6 4 8 12 12 7 10 4 5 4 5 5 6 1 11 7 11 25 6 9 10 14 10 8 9 13
12 14 17 18 21 23 25 23 15 4 6 11 3 2 10 6 3 3 4 8 12 1 5 4 6 6 5 8 9 6 14 10 6 8 5 16 18 4 2 2 6 8 10 10 13
12 14 16 19 20 20 25 15 7 4 1 4 3 4 3 8 9 12 13 6 4 7 2 4 4 6 6 10 16 10 11 9 15 6 10 15 18 13 13 9 10 11 11 13 15
12 14 17 19 20 19 13 5 9 7 9 4 17 8 19 10 16 4 7 6 4 5 6 5 7 21 18 19 18 12 11 14 5 2 6 13 21 17 13 11 11 14 15 17 18
11 14 17 20 16 16 8 9 5 5 13 18 20 14 19 10 7 14 4 5 5 14 10 6 20 11 11 15 15 16 20 25 13 11 11 19 28 20 17 18 19 19 18 18 17
11 14 17 20 4 6 3 6 4 4 6 11 6 6 7 2 4 8 5 4 9 17 16 18 27 18 11 10 17 20 23 17 18 7 10 9 30 21 18 20 18 15 18 15 12
11 13 16 18 7 5 2 8 7 2 4 7 5 3 12 14 6 18 3 6 4 7 13 18 26 13 9 19 15 18 11 17 15 9 11 6 13 3 9 12 9 9 5 7 9
11 12 14 11 0 2 4 9 9 1 6 12 6 4 17 18 17 6 7 6 19 16 6 12 5 18 23 19 15 9 10 15 16 15 10 15 10 1 4 5 1 5 5 8 10
10 10 11 3 2 4 6 8 3 2 5 7 9 18 17 17 16 11 12 13 8 11 14 25 14 10 19 12 20 6 6 5 3 6 9 13 12 3 9 6 7 4 6 7 12
9 9 4 0 1 4 5 4 3 2 6 9 11 13 20 8 12 15 21 16 10 7 11 11 23 16 9 12 13 17 12 7 7 7 9 6 12 10 7 5 8 8 6 8 11
10 7 3 0 2 3 3 5 5 0 6 7 8 22 7 10 14 17 15 16 16 18 12 9 9 21 16 18 13 19 17 9 10 8 7 9 10 7 12 10 9 6 7 10 14
7 3 2 3 2 3 4 5 4 3 4 10 16 8 8 7 12 10 9 6 8 11 7 5 7 5 10 12 16 9 18 15 3 1 3 6 5 8 8 14 8 5 10 14 14
2 2 2 4 2 3 4 1 2 4 6 4 5 3 12 14 13 12 7 7 11 8 10 3 7 6 1 15 12 10 17 10 6 9 7 4 3 4 12 13 10 8 12 11 12
4 4 3 2 1 4 3 2 4 7 7 4 5 9 9 12 8 6 6 11 9 15 11 7 4 2 5 7 19 12 12 7 9 5 10 9 5 4 1 14 11 11 11 11 14
3 3 1 2 3 2 1 4 4 6 4 8 6 10 10 15 7 6 6 6 16 12 14 4 5 7 12 4 1 10 21 10 11 13 7 5 5 3 6 10 10 11 11 12 16
3 1 2 1 2 1 3 3 4 3 4 3 4 2 10 9 8 9 8 12 10 14 9 7 3 5 6 3 6 7 4 5 14 1 14 9 5 4 7 9 9 13 9 8 14
3 2 2 1 2 2 1 3 4 4 4 2 4 5 11 9 8 11 12 9 19 16 13 1 4 9 3 4 2 1 3 6 5 12 15 8 7 10 8 8 9 11 10 8 10
2 2 2 1 1 1 1 3 5 4 3 2 2 8 10 7 13 4 13 19 12 8 12 2 3 7 14 7 1 3 2 3 2 3 14 16 12 12 11 6 9 10 9 10 9
4 3 2 1 2 2 3 2 2 3 3 4 4 13 13 9 12 20 18 15 11 9 12 8 4 3 3 13 6 1 0 5 3 2 4 6 4 3 4 10 9 10 11 12 10
1 1 3 1 2 2 3 2 1 7 5 8 10 16 11 12 12 20 18 19 17 17 9 6 7 9 5 6 7 5 2 1 2 4 3 5 4 7 11 12 9 11 11 11 10
Wind_Direction
9 5 1 355 355 352 350 346 340 336 334 334 334 333 329 325 320 359 271 239 189 295 168 139 130 164 118 148 127 153 208 216 229 194 231 209 207 206 331 254 346 297 191 272 322
1 358 356 354 353 350 346 343 338 333 329 328 329 330 328 327 308 283 251 273 232 261 148 170 160 159 172 169 179 202 224 216 221 208 229 189 210 211 276 312 276 262 261 285 338
5 358 352 351 348 344 339 335 331 328 325 323 325 327 324 329 294 242 2 346 206 218 223 195 145 171 191 166 188 198 238 223 240 232 238 250 260 192 254 284 260 280 308 301 272
3 356 350 348 343 338 336 329 328 325 321 317 320 324 322 307 313 62 31 14 176 205 195 164 154 194 211 208 203 238 229 233 247 217 212 242 252 259 242 259 269 263 273 286 276
357 352 348 345 339 335 332 325 322 319 316 311 314 323 337 345 249 24 7 354 355 153 224 179 170 195 216 213 207 237 240 223 237 247 248 264 258 261 240 250 278 273 270 266 264
357 353 349 340 336 336 328 321 314 316 312 307 304 309 139 275 122 2 350 333 323 312 290 206 214 229 249 228 223 247 256 261 264 254 251 256 260 248 239 256 256 253 264 262 256
360 351 345 338 337 332 326 314 313 315 309 306 259 152 164 242 344 335 335 286 237 232 252 234 309 258 307 259 253 256 284 270 242 235 239 253 262 243 249 239 240 245 257 267 255
352 351 342 337 338 332 322 317 321 325 340 54 136 124 245 250 294 309 306 312 249 243 240 260 251 244 218 285 299 264 263 273 309 207 226 198 255 248 255 212 233 248 252 267 266
360 353 347 342 341 330 320 322 323 341 99 117 93 72 277 301 337 346 24 324 314 168 199 287 166 203 171 219 258 231 255 252 280 205 211 214 270 277 154 174 273 273 281 281 280
6 355 351 346 345 336 329 333 359 52 283 211 162 293 261 322 328 327 306 271 292 316 112 176 222 215 198 193 232 232 240 237 244 200 207 245 257 263 283 290 278 284 281 282 281
7 1 352 346 348 350 347 20 12 355 42 256 285 255 286 287 311 296 305 322 227 213 217 199 217 223 206 213 232 240 244 252 248 222 268 263 267 270 271 272 264 270 271 272 268
7 6 357 347 349 8 16 68 69 270 300 289 267 262 266 268 316 311 297 268 244 236 200 199 234 231 207 208 217 226 243 253 261 257 272 271 270 273 267 260 259 259 264 261 261
11 15 359 347 45 35 46 73 307 295 272 300 285 283 327 316 264 305 308 267 246 250 219 218 241 207 206 204 215 229 234 251 253 258 254 279 278 269 258 251 260 253 250 266 278
16 17 9 346 44 336 15 334 324 226 319 297 347 25 352 347 247 317 248 241 272 291 236 235 255 225 197 224 208 238 217 234 236 228 251 211 281 242 299 267 233 256 342 318 316
18 16 23 36 255 27 293 335 323 134 319 340 349 336 339 349 281 322 296 252 258 261 281 236 254 204 221 208 186 230 194 210 221 226 254 239 270 302 245 232 220 83 20 2 346
10 8 8 41 19 257 333 328 34 54 282 342 340 335 339 336 327 325 325 298 243 246 237 255 283 235 222 206 210 171 135 138 142 193 240 234 225 206 219 229 142 95 59 39 25
358 356 26 117 276 325 348 25 66 101 358 328 324 333 319 312 324 332 325 306 277 230 242 275 234 237 229 204 193 185 173 188 206 200 238 216 203 260 244 205 146 122 76 41 29
340 23 18 19 322 31 36 56 79 105 279 319 327 313 303 342 333 318 315 324 325 256 260 271 272 210 224 216 190 192 187 188 209 208 231 158 220 240 244 173 136 106 64 44 28
3 18 41 334 69 82 71 64 185 235 308 330 323 323 316 313 324 315 327 322 335 313 287 251 254 207 210 194 171 180 200 200 153 61 188 196 228 265 148 138 140 85 48 36 26
68 49 7 326 108 60 72 83 235 221 300 308 300 297 307 324 327 338 340 316 320 312 314 270 270 220 117 185 232 190 186 184 218 210 206 194 209 188 177 155 147 88 62 44 36
61 69 339 69 35 56 105 251 280 276 285 263 261 293 288 309 307 301 275 283 272 325 348 296 249 279 153 189 201 208 195 191 197 213 217 225 220 233 267 171 144 108 85 66 52
89 77 314 41 62 109 235 204 278 287 259 253 257 262 264 301 284 281 269 278 302 331 344 319 320 263 242 98 51 221 212 193 198 187 217 220 193 331 152 145 135 129 117 95 74
97 151 325 134 113 171 277 275 236 286 310 305 286 340 322 290 300 268 286 297 331 327 348 330 332 286 208 203 56 35 23 280 245 21 219 217 219 115 139 136 142 134 114 88 78
102 83 340 293 181 142 315 278 294 270 260 288 267 326 330 308 307 291 304 310 329 310 315 271 308 318 30 25 334 166 296 353 230 213 220 219 159 182 179 146 126 125 110 91 70
52 209 189 195 183 216 251 249 290 321 304 283 250 360 334 294 309 280 316 323 317 337 346 267 320 325 345 338 145 245 343 9 24 246 208 222 221 196 195 181 143 125 114 94 71
135 151 160 244 274 214 225 239 267 337 278 299 283 329 315 285 280 299 312 308 297 317 338 334 285 331 262 304 311 188 300 11 9 112 72 129 161 276 202 126 133 109 108 83 59
142 35 106 229 187 155 226 216 225 343 268 255 314 316 303 302 303 284 271 265 260 283 307 296 341 335 293 332 306 56 273 78 317 342 335 228 143 142 125 123 110 105 92 85 69